TimePDT,TemperatureF,Dew PointF,Humidity,Sea Level PressureIn,VisibilityMPH,Wind Direction,Wind SpeedMPH,Gust SpeedMPH,PrecipitationIn,Events,Conditions,WindDirDegrees,DateUTC
12:53 AM,55.0,50.0,83,30.01,10.0,Calm,Calm,-,N/A,,Clear,0,2012-10-29 07:53:00
1:53 AM,53.1,50.0,89,30.03,10.0,Calm,Calm,-,N/A,,Clear,0,2012-10-29 08:53:00
2:53 AM,52.0,48.0,86,30.04,10.0,Calm,Calm,-,N/A,,Clear,0,2012-10-29 09:53:00
3:53 AM,53.1,50.0,89,30.04,10.0,Calm,Calm,-,N/A,,Clear,0,2012-10-29 10:53:00
4:53 AM,51.1,48.0,89,30.05,10.0,Calm,Calm,-,N/A,,Clear,0,2012-10-29 11:53:00
5:53 AM,50.0,46.9,89,30.06,10.0,Calm,Calm,-,N/A,,Clear,0,2012-10-29 12:53:00
6:53 AM,50.0,46.0,86,30.07,10.0,Calm,Calm,-,N/A,,Clear,0,2012-10-29 13:53:00
7:53 AM,50.0,46.9,89,30.09,10.0,Calm,Calm,-,N/A,,Clear,0,2012-10-29 14:53:00
8:53 AM,57.0,50.0,77,30.12,10.0,North,3.5,-,N/A,,Clear,360,2012-10-29 15:53:00
9:53 AM,60.8,51.8,72,30.12,10.0,Calm,Calm,-,N/A,,Clear,0,2012-10-29 16:53:00
10:53 AM,66.0,52.0,60,30.12,10.0,North,4.6,-,N/A,,Clear,350,2012-10-29 17:53:00
11:53 AM,71.1,52.0,51,30.11,10.0,NNE,3.5,-,N/A,,Clear,20,2012-10-29 18:53:00
12:53 PM,73.9,52.0,46,30.08,10.0,Variable,3.5,-,N/A,,Clear,0,2012-10-29 19:53:00
1:53 PM,75.9,51.1,42,30.05,10.0,Calm,Calm,-,N/A,,Clear,0,2012-10-29 20:53:00
2:53 PM,77.0,52.0,42,30.03,10.0,Calm,Calm,-,N/A,,Clear,0,2012-10-29 21:53:00
3:53 PM,78.1,51.1,39,30.02,10.0,Calm,Calm,-,N/A,,Clear,0,2012-10-29 22:53:00
4:53 PM,75.9,51.1,42,30.02,10.0,Calm,Calm,-,N/A,,Clear,0,2012-10-29 23:53:00
5:53 PM,73.0,53.1,49,30.01,5.0,ESE,3.5,-,N/A,,Haze,120,2012-10-30 00:53:00
6:15 PM,69.8,53.6,56,30.02,2.5,Calm,Calm,-,N/A,,Haze,0,2012-10-30 01:15:00
6:23 PM,69.8,53.6,56,30.02,5.0,Calm,Calm,-,N/A,,Haze,0,2012-10-30 01:23:00
6:53 PM,66.9,52.0,59,30.01,2.0,Calm,Calm,-,N/A,,Haze,0,2012-10-30 01:53:00
7:15 PM,64.4,53.6,68,30.02,5.0,Calm,Calm,-,N/A,,Haze,0,2012-10-30 02:15:00
7:53 PM,63.0,53.1,70,30.02,10.0,Calm,Calm,-,N/A,,Clear,0,2012-10-30 02:53:00
8:53 PM,60.1,52.0,75,30.01,10.0,Calm,Calm,-,N/A,,Clear,0,2012-10-30 03:53:00
9:53 PM,59.0,52.0,78,30.04,10.0,Calm,Calm,-,N/A,,Clear,0,2012-10-30 04:53:00
10:53 PM,55.9,51.1,84,30.04,10.0,Calm,Calm,-,N/A,,Clear,0,2012-10-30 05:53:00
11:53 PM,53.6,50.0,88,30.05,10.0,NE,3.5,-,N/A,,Clear,50,2012-10-30 06:53:00